Volver al catálogo

COSMOS 2251 DEB

ActivoLEO
NORAD 34908·DEBRIS·🇷🇺 Russia

Lanzado Jun 16, 1993 desde Plesetsk Cosmodrome

Loading…

Próximos Pases (próximas 24 horas)

TLE

ActualizadoSource: Space-Track

Época: Sep 14, 2026, 09:51 UTC

1 34908U 93036ADD 26257.41065760  .00000834  00000-0  28046-3 0  9994
2 34908  74.0553 236.6873 0040996 190.2945 323.2771 14.38203507912418

Sigue COSMOS 2251 DEB en tiempo real con AllMySat

Download on the App Store